Regional Weather Roundup
Issued by NWS

Home | Current Version | Previous Version | Graphics & Text | Print | Product List | Glossary On
Versions: 1 2 3 4 5 6 7 8 9 10 11 12 13 14 15 16 17 18 19 20 21 22 23 24 25 26 27
000
ASUS45 KSLC 200410
RWRUT

UTAH REGIONAL WEATHER ROUNDUP
NATIONAL WEATHER SERVICE SALT LAKE CITY UT
1000 PM MDT THU OCT 19 2017

UTZ001>011-023>025-200500-

NORTHERN UTAH

CITY           SKY/WX    TMP DP  RH WIND       PRES   REMARKS
BRIGHAM CITY   PTCLDY    49  31  49 SE6       29.78F
HILL AFB       CLOUDY    63  37  37 S18       29.79F
LOGAN          PTCLDY    47  28  47 N3        29.78F
OGDEN          MOCLDY    63  34  33 S12       29.78F
SALT LAKE CITY MOCLDY    67  39  35 S12       29.78F
TOOELE VALLEY  PTCLDY    64  36  34 S13       29.77F
WENDOVER       CLEAR     45  24  43 CALM      29.75F
WEST JORDAN    CLOUDY    63  42  45 S12       29.82F

$$

UTZ011>015-024>027-200500-

CENTRAL/NORTHEAST UTAH

CITY           SKY/WX    TMP DP  RH WIND       PRES   REMARKS
PROVO AIRPORT  MOCLDY    60  43  53 W6        29.84F
MOAB/CANYONLAN PTCLDY    60  27  28 CALM      29.88S
DELTA          CLOUDY    64  34  32 S12       29.83F
PRICE          MOCLDY    57  25  29 NE6       29.94F
RICHFIELD      CLEAR     50  37  62 CALM      29.92F
ROOSEVELT      CLOUDY    46  30  53 SW5       29.93F
VERNAL         PTCLDY    49  27  42 W5        29.91F

$$

UTZ013>016-019>022-027-200500-

SOUTHERN UTAH

CITY           SKY/WX    TMP DP  RH WIND       PRES   REMARKS
BRYCE CANYON   PTCLDY    43  31  62 SW5       30.07S
CEDAR CITY     CLEAR     54  31  41 SW6       29.92F
MILFORD        CLEAR     58  34  40 S13       29.88S
ST GEORGE      CLOUDY    69  31  24 CALM      29.80S
HANKSVILLE     MOCLDY    66  30  26 S7        29.89S
KANAB          CLEAR     54  32  43 CALM      29.96S
BLANDING         N/A     52  34  50 N9        30.09F

$$

REGIONAL REPORTS     COLORADO/ARIZONA

CITY           SKY/WX    TMP DP  RH WIND       PRES   REMARKS
CRAIG, CO      MOCLDY    47  31  53 CALM      29.98S
GRAND JUNCTION MOCLDY    61  27  27 E7        29.92R
RIFLE, CO      PTCLDY    54  30  40 E7        29.97F
MONTROSE, CO   MOCLDY    53  30  41 SE8       30.02S
CORTEZ, CO     CLOUDY    51  32  48 E5        30.04S
COLORADO CITY    N/A     46  32  57 E7        29.95F
PAGE, AZ       MOCLDY    70  38  31 SW9       29.88S
GRAND CANYON   CLEAR     45  28  51 CALM      30.06R
KINGMAN, AZ    CLEAR     67  30  25 S10       29.87S
FLAGSTAFF, AZ  CLEAR     47  28  47 CALM      30.10S

$$

REGIONAL REPORTS    NEVADA/IDAHO/WYOMING

CITY           SKY/WX    TMP DP  RH WIND       PRES   REMARKS
LAS VEGAS, NV  CLEAR     76  25  15 S7        29.74S
ELY, NY        CLEAR     46  24  42 S12       29.87F
ELKO, NV       CLEAR     46  16  30 CALM      29.75F
POCATELLO, ID  CLEAR     63  15  15 S17G26    29.70F
BURLEY, ID     PTCLDY    59  16  18 SW15      29.67F
FORT BRIDGER,    N/A     53  27  35 SW12      29.98S
EVANSTON, WY   PTCLDY    50  30  46 S9        29.95F
ROCK SPRINGS,  CLEAR     51  23  33 SW9       29.93F
KEMMERER, WY   MOCLDY    52  10  19 S3        29.96S

$$




USA.gov is the U.S. government's official web portal to all federal, state and local government web resources and services.